Regional Weather Roundup
Issued by NWS

Home | Current Version | Previous Version | Text Only | Print | Product List | Glossary Off
Versions: 1 2 3 4 5 6 7 8 9 10 11 12 13 14 15 16 17 18 19 20 21 22 23 24 25 26 27

000
ASUS45 KBOI 221010
RWRID

IDAHO REGIONAL WEATHER ROUNDUP
NATIONAL WEATHER SERVICE BOISE ID
300 AM MST MON JAN 22 2018

NOTE: "FAIR" INDICATES FEW OR NO CLOUDS BELOW 12000 FEET
WITH NO SIGNIFICANT WEATHER AND/OR OBSTRUCTIONS TO VISIBILITY

IDZ012-014-221100-
SOUTHWEST IDAHO


CITY           SKY/WX    TMP DP  RH WIND       PRES   REMARKS
BOISE          CLOUDY    36  30  79 SE16      30.17R WCI  26
CALDWELL         N/A     36  32  85 E15       30.17  WCI  27
MOUNTAIN HOME  CLOUDY    33  33 100 E13       30.18S WCI  24
$$

IDZ016-017-221100-
SOUTHCENTRAL IDAHO


CITY           SKY/WX    TMP DP  RH WIND       PRES   REMARKS
BURLEY         CLOUDY    34  18  52 S17G30    30.19R WCI  23
JEROME         CLOUDY    32  22  66 S3        30.22R
TWIN FALLS     CLOUDY    33  20  58 SW8       30.20R WCI  26
$$

IDZ019>023-221100-
SOUTHEAST IDAHO


CITY           SKY/WX    TMP DP  RH WIND       PRES   REMARKS
IDAHO FALLS    PTCLDY    20  17  88 N5        30.23R WCI  13
POCATELLO      PTCLDY    30  18  60 S10       30.21R WCI  21
REXBURG        MOCLDY    24  15  68 S10       30.21S WCI  14
$$

IDZ006-010-011-018-031-032-221100-
CENTRAL IDAHO MOUNTAINS


CITY           SKY/WX    TMP DP  RH WIND       PRES   REMARKS
MCCALL         LGT SNOW  27  25  92 S7        30.06S FOG     WCI  19
HAILEY         CLOUDY    21  19  93 NW8       30.20R FOG     WCI  12
STANLEY          N/A     16  13  88 CALM      30.09F
SALMON         CLOUDY    23  18  81 CALM      30.16F
CHALLIS        CLOUDY    23  17  78 CALM      30.12S
$$

IDZ002-004-006-007-026-221100-
NORTHERN IDAHO


CITY           SKY/WX    TMP DP  RH WIND       PRES   REMARKS
LEWISTON       CLOUDY    43  34  70 S7        30.10R
LOWELL           N/A     34  33  96 NW3       30.17R
COEUR D`ALENE  CLOUDY    36  33  89 S6        30.06R WCI  31
MULLAN PASS    LGT SNOW  25  24  96 VRB3      29.95R FOG
$$




USA.gov is the U.S. government's official web portal to all federal, state and local government web resources and services.